Regional Weather Roundup
Issued by NWS Sterling, VA

Home | Current Version | Previous Version | Text Only | Print | Product List | Glossary On
Versions: 1 2 3 4 5 6 7 8 9 10 11 12 13 14 15 16 17 18 19 20 21 22 23 24 25 26 27 28 29
000
ASUS41 KLWX 251710
RWRLWX

REGIONAL WEATHER ROUNDUP
NATIONAL WEATHER SERVICE BALTIMORE MD/WASHINGTON DC
100 PM EDT SAT OCT 25 2014

Note: "FAIR" indicates few or no clouds below 12,000 feet
with no significant weather and/or obstructions to visibility.
 TC=TEMPERATURE CELSIUS

 * =Non NWS site. Station does not report precipitation (e.g. rain,
    snow, etc.), thunder, or fog.

DCZ001-MDZ009-015-VAZ040>042-051-053>054-251800-
WASHINGTON METRO

CITY           SKY/WX    TMP DP  RH WIND       PRES   REMARKS
WASHINGTON NAT MOSUNNY   72  42  34 W8        29.89F
DULLES         MOSUNNY   68  43  40 SW10      29.89F
ANDREWS AFB    SUNNY     67  44  43 SW8       29.88F
FT BELVOIR     SUNNY     67  46  46 SE6       29.89F
QUANTICO       MOSUNNY   65  50  58 S8        29.90F
COLLEGE PARK*  SUNNY     68  39  34 W7        29.88F
LEESBURG*      SUNNY     68  45  42 W14       29.90F
MANASSAS*      SUNNY     70  43  37 SW9       29.89F
GAITHERSBURG*  SUNNY     66  43  42 W10G22    29.91F

$$

MDZ006>007-011-014-251800-
BALTIMORE METRO

CITY           SKY/WX    TMP DP  RH WIND       PRES   REMARKS
BWI AIRPORT    MOSUNNY   67  42  40 W12G17    29.86F
MD SCIENCE CTR   N/A     68  42  38 MISG      29.87F
MARTIN STATE   MOSUNNY   70  45  40 CALM      29.88F
ANNAPOLIS      SUNNY     67  41  38 VRB7      29.87F
FORT MEADE*    SUNNY     68  41  37 W15       29.89F

$$

MDZ012-015-019>023-251800-
MARYLAND EASTERN SHORE

CITY           SKY/WX    TMP DP  RH WIND       PRES   REMARKS
OCEAN CITY     SUNNY     67  42  40 W8        29.89F
SALISBURY      SUNNY     69  44  40 SW7       29.89F
BAY BRIDGE AP*   N/A     66  43  42 W7        29.87F
CAMBRIDGE*     SUNNY     68  43  40 W5        29.88F
EASTON*        SUNNY     68  46  45 NW8       29.92F

$$

MDZ017>025-251800-
SOUTHERN MARYLAND

CITY           SKY/WX    TMP DP  RH WIND       PRES   REMARKS
PATUXENT RIVER MOSUNNY   68  42  38 VRB3      29.89F
ST INIGOES     SUNNY     65  42  43 SW8       29.90F
LEONARDTOWN*   SUNNY     68  41  37 SW5       29.91F

$$

MDZ003>005-251800-
NORTH CENTRAL MARYLAND

CITY           SKY/WX    TMP DP  RH WIND       PRES   REMARKS
FREDERICK*     SUNNY     72  39  30 W14       29.91F
HAGERSTOWN APT SUNNY     66  42  41 W14       29.86F
WESTMINSTER*   SUNNY     63  43  48 SW14      29.86F

$$

MDZ501>502-251800-
WESTERN MARYLAND

CITY           SKY/WX    TMP DP  RH WIND       PRES   REMARKS
OAKLAND*       CLOUDY    54  45  71 W13G21    29.94S
CUMBERLAND*    SUNNY     70  43  37 W9        29.91F

$$

VAZ025>031-251800-
SHENANDOAH VALLEY

CITY           SKY/WX    TMP DP  RH WIND       PRES   REMARKS
WINCHESTER*    SUNNY     68  32  26 SW8       29.88F
FRONT ROYAL*   FAIR      66  41  39 SW9       29.89F
LURAY*         FAIR      68  43  40 S10       29.91F
NEW MARKET*    FAIR      64  41  42 SW7       29.92F
STAUNTON*      SUNNY     67  38  35 SW7       29.95F
WAYNESBORO*    FAIR      64  39  39 SW9G17    29.95F

$$

WVZ021-048>050-054>055-251800-
EASTERN WEST VIRGINIA PANHANDLE

CITY           SKY/WX    TMP DP  RH WIND       PRES   REMARKS
MARTINSBURG    SUNNY     69  40  34 W16G23    29.88F
PETERSBURG*    SUNNY     67  39  35 W10       29.92F

$$

VAZ036>039-050-251800-
CENTRAL FOOTHILLS

CITY           SKY/WX    TMP DP  RH WIND       PRES   REMARKS
CHARLOTTESVILL SUNNY     69  35  28 S10       29.92F
CULPEPER*      SUNNY     72  37  28 SW9       29.91F
ORANGE*        SUNNY     70  34  26 SW10G17   29.93F
GORDONSVILLE*  FAIR      68  32  27 SW9       29.91F
WARRENTON*     FAIR      72  46  39 S9        29.90F

$$

VAZ055>057-251800-
NORTH AND CENTRAL PIEDMONT

CITY           SKY/WX    TMP DP  RH WIND       PRES   REMARKS
FREDERICKSBRG* SUNNY     71  38  30 W14       29.90F
STAFFORD*      SUNNY    N/A N/A N/A SW6G16    29.94F

$$

NCZ024-NYZ072-PAZ021-071-VAZ022-071-251800-
OTHER REGIONAL OBSERVATIONS

CITY           SKY/WX    TMP DP  RH WIND       PRES   REMARKS
NEW YORK CITY  SUNNY     63  41  44 VRB3      29.80F
PHILADELPHIA   MOSUNNY   67  43  41 SW13      29.82F
PITTSBURGH     MOSUNNY   62  49  62 SW17G25   29.87F
ROANOKE        SUNNY     66  39  37 SW8       30.00F
RICHMOND       SUNNY     69  41  36 SW7       29.93F
RALEIGH        SUNNY     66  41  40 VRB5      29.99F

$$

ANZ530>537-251800-
MARINE OBSERVATIONS

STATION/POSITION TIME  TEMP    WIND        PRES
                       AIR SEA DIR/SP/G
                 (UTC) (F)     (DEG/KT/KT) (MB)
THOMAS PT LIGHT  1700   64 62  250/  8/  8 1012.7F
BALT KEY BRIDGE  1700   65     250/ 10/ 12 1011.3F
COVE POINT       1700   63     200/  1/  2 1012.3F
LEWISETTA        1700   60 59  100/  4/  4 1012.5F
SOLOMONS ISLAND  1700      63                N/A
PINEY POINT      1700           10/  5/  6   N/A

$$




USA.gov is the U.S. government's official web portal to all federal, state and local government web resources and services.